EW8310 Weather Reports


Display with metric or nautical units.
time (UTC)temp
F
wind
direction
speed
MPH
gust
MPH
rain 1hr
in
rain 24hr
in
rain mn
in
humidity
%
barometer
mb
20260510063502 83 299 7.0 11.0 0.00 0.00 0.00 14 1007.3
20260510063002 83 299 4.0 11.0 0.00 0.00 0.00 14 1007.2
20260510062722 84 300 5.0 11.0 0.00 0.00 0.00 14 1007.2
20260510062003 84 268 2.0 9.0 0.00 0.00 0.00 13 1007.2
20260510061502 85 334 2.0 11.0 0.00 0.00 0.00 13 1007.0
20260510061002 85 344 5.0 11.0 0.00 0.00 0.00 13 1006.9
20260510060502 85 14 5.0 11.0 0.00 0.00 0.00 13 1006.8
20260510060002 85 6 4.0 11.0 0.00 0.00 0.00 13 1006.6
20260510055501 85 317 2.0 10.0 0.00 0.00 0.00 13 1006.6
20260510055002 85 341 5.0 10.0 0.00 0.00 0.00 13 1006.6
20260510054502 85 0 3.0 13.0 0.00 0.00 0.00 14 1006.4
20260510054002 86 39 4.0 13.0 0.00 0.00 0.00 13 1006.3
20260510053501 86 338 3.0 11.0 0.00 0.00 0.00 13 1006.3
20260510053001 86 34 5.0 11.0 0.00 0.00 0.00 13 1006.2
20260510052501 86 355 4.0 11.0 0.00 0.00 0.00 14 1006.2
20260510052000 86 336 5.0 12.0 0.00 0.00 0.00 13 1006.3
20260510051500 87 34 6.0 12.0 0.00 0.00 0.00 13 1006.3
20260510051000 87 20 4.0 12.0 0.00 0.00 0.00 12 1006.1
20260510050500 87 343 5.0 12.0 0.00 0.00 0.00 13 1006.1
20260510050001 87 35 6.0 14.0 0.00 0.00 0.00 13 1006.1
20260510045500 87 354 5.0 14.0 0.00 0.00 0.00 12 1006.1
20260510045000 87 337 6.0 12.0 0.00 0.00 0.00 13 1006.1
20260510044500 87 20 5.0 11.0 0.00 0.00 0.00 13 1006.0
20260510044000 87 350 5.0 11.0 0.00 0.00 0.00 13 1005.9
20260510043723 87 323 3.0 14.0 0.00 0.00 0.00 13 1005.9
20260510043000 87 38 6.0 14.0 0.00 0.00 0.00 12 1005.8
20260510042500 87 350 5.0 14.0 0.00 0.00 0.00 12 1005.8
20260510042441 87 27 6.0 14.0 0.00 0.00 0.00 12 1005.8
20260510041459 87 52 6.0 14.0 0.00 0.00 0.00 13 1005.8
20260510040959 87 10 4.0 13.0 0.00 0.00 0.00 12 1005.7
20260510040459 87 42 5.0 13.0 0.00 0.00 0.00 12 1005.6
20260510035959 87 6 6.0 11.0 0.00 0.00 0.00 12 1005.5
20260510035459 87 355 4.0 11.0 0.00 0.00 0.00 12 1005.5
20260510034959 87 35 6.0 11.0 0.00 0.00 0.00 12 1005.3
20260510034459 87 11 4.0 10.0 0.00 0.00 0.00 12 1005.3
20260510033958 87 55 5.0 11.0 0.00 0.00 0.00 12 1005.3
20260510033458 87 30 5.0 11.0 0.00 0.00 0.00 12 1005.2
20260510032958 87 34 3.0 10.0 0.00 0.00 0.00 13 1005.3
20260510032458 87 30 4.0 11.0 0.00 0.00 0.00 13 1005.2
20260510031958 87 42 4.0 11.0 0.00 0.00 0.00 13 1005.1
20260510031458 87 337 3.0 9.0 0.00 0.00 0.00 13 1005.0
20260510030958 86 23 5.0 9.0 0.00 0.00 0.00 13 1005.0
20260510030458 86 351 4.0 7.0 0.00 0.00 0.00 14 1004.9
20260510025957 86 347 2.0 7.0 0.00 0.00 0.00 14 1004.8
20260510025457 86 28 1.0 7.0 0.00 0.00 0.00 14 1004.8
20260510024957 86 18 1.0 4.0 0.00 0.00 0.00 13 1004.9
20260510024457 86 16 0.0 2.0 0.00 0.00 0.00 14 1004.8
20260510023957 86 24 0.0 4.0 0.00 0.00 0.00 13 1004.8
20260510023457 86 17 0.0 5.0 0.00 0.00 0.00 13 1004.8
20260510022957 86 23 2.0 5.0 0.00 0.00 0.00 14 1004.7
20260510022724 86 27 0.0 4.0 0.00 0.00 0.00 14 1004.7
20260510021956 87 25 0.0 0.0 0.00 0.00 0.00 14 1004.7
20260510021457 88 354 0.0 2.0 0.00 0.00 0.00 14 1004.6
20260510020957 88 334 0.0 2.0 0.00 0.00 0.00 12 1004.5
20260510020456 89 343 0.0 4.0 0.00 0.00 0.00 12 1004.5
20260510015956 90 319 1.0 4.0 0.00 0.00 0.00 12 1004.5
20260510015456 91 295 1.0 4.0 0.00 0.00 0.00 11 1004.5
20260510014956 91 326 2.0 10.0 0.00 0.00 0.00 11 1004.4
20260510014455 92 353 2.0 10.0 0.00 0.00 0.00 10 1004.4
20260510013955 92 278 4.0 6.0 0.00 0.00 0.00 10 1004.3
20260510013456 92 292 3.0 6.0 0.00 0.00 0.00 10 1004.4
20260510012956 92 286 3.0 6.0 0.00 0.00 0.00 10 1004.3
20260510012716 92 303 4.0 12.0 0.00 0.00 0.00 10 1004.4
20260510011955 93 20 4.0 12.0 0.00 0.00 0.00 10 1004.4
20260510011454 93 288 3.0 12.0 0.00 0.00 0.00 9 1004.4
20260510010955 93 276 5.0 9.0 0.00 0.00 0.00 9 1004.3
20260510010454 93 298 4.0 9.0 0.00 0.00 0.00 10 1004.3
20260510005954 94 264 4.0 9.0 0.00 0.00 0.00 9 1004.3
20260510005454 94 341 3.0 10.0 0.00 0.00 0.00 9 1004.3
20260510005438 94 296 1.0 11.0 0.00 0.00 0.00 9 1004.3
20260510004454 94 278 6.0 12.0 0.00 0.00 0.00 9 1004.3
20260510003954 94 319 6.0 12.0 0.00 0.00 0.00 9 1004.3
20260510003713 94 290 5.0 14.0 0.00 0.00 0.00 9 1004.4
20260510002954 94 265 7.0 14.0 0.00 0.00 0.00 9 1004.4
20260510002453 94 305 5.0 14.0 0.00 0.00 0.00 9 1004.4
20260510001953 95 278 7.0 14.0 0.00 0.00 0.00 9 1004.4
20260510001454 95 299 4.0 10.0 0.00 0.00 0.00 9 1004.4
20260510000954 95 288 3.0 13.0 0.00 0.00 0.00 8 1004.4
20260510000453 95 316 8.0 13.0 0.00 0.00 0.00 8 1004.5
20260509235954 95 259 3.0 10.0 0.00 0.00 0.00 9 1004.5
20260509235453 95 343 5.0 11.0 0.00 0.00 0.00 9 1004.5
20260509234953 96 310 5.0 11.0 0.00 0.00 0.00 8 1004.5
20260509234453 96 302 3.0 7.0 0.00 0.00 0.00 9 1004.5
20260509233953 95 316 2.0 9.0 0.00 0.00 0.00 9 1004.6
20260509233453 95 30 3.0 14.0 0.00 0.00 0.00 9 1004.6
20260509232953 96 286 6.0 14.0 0.00 0.00 0.00 9 1004.6
20260509232715 96 298 8.0 14.0 0.00 0.00 0.00 9 1004.6
20260509232211 95 4 3.0 11.0 0.00 0.00 0.00 9 1004.7
20260509231453 96 306 3.0 6.0 0.00 0.00 0.00 9 1004.8
20260509230953 96 272 0.0 10.0 0.00 0.00 0.00 8 1004.7
20260509230452 96 271 1.0 14.0 0.00 0.00 0.00 9 1004.9
20260509225952 95 223 7.0 14.0 0.00 0.00 0.00 9 1004.9
20260509225452 96 292 5.0 13.0 0.00 0.00 0.00 9 1004.9
20260509225433 96 292 5.0 16.0 0.00 0.00 0.00 8 1005.0
20260509224452 96 207 2.0 16.0 0.00 0.00 0.00 9 1005.0
20260509223952 96 168 2.0 11.0 0.00 0.00 0.00 9 1005.0
20260509223451 96 296 5.0 15.0 0.00 0.00 0.00 9 1005.1
20260509222951 96 337 6.0 15.0 0.00 0.00 0.00 10 1005.2
20260509222451 97 302 4.0 10.0 0.00 0.00 0.00 10 1005.1
20260509221951 96 313 5.0 17.0 0.00 0.00 0.00 9 1005.3
20260509221451 96 282 7.0 17.0 0.00 0.00 0.00 9 1005.3
20260509220952 96 295 7.0 14.0 0.00 0.00 0.00 9 1005.3
20260509220451 96 247 5.0 13.0 0.00 0.00 0.00 9 1005.3
20260509215950 96 298 6.0 13.0 0.00 0.00 0.00 9 1005.5
20260509215450 96 296 4.0 13.0 0.00 0.00 0.00 10 1005.6
20260509214950 96 274 5.0 13.0 0.00 0.00 0.00 10 1005.6
20260509214450 96 228 4.0 12.0 0.00 0.00 0.00 9 1005.7
20260509213950 96 279 4.0 14.0 0.00 0.00 0.00 10 1005.8
20260509213450 96 313 7.0 14.0 0.00 0.00 0.00 11 1005.8
20260509212949 96 279 5.0 14.0 0.00 0.00 0.00 10 1005.9
20260509212449 96 279 8.0 14.0 0.00 0.00 0.00 10 1006.0
20260509211949 98 271 3.0 11.0 0.00 0.00 0.00 10 1006.0
20260509211450 97 274 4.0 13.0 0.00 0.00 0.00 10 1006.0
20260509210950 96 241 3.0 13.0 0.00 0.00 0.00 10 1006.1
20260509210450 96 257 1.0 12.0 0.00 0.00 0.00 11 1006.2
20260509205949 96 274 4.0 12.0 0.00 0.00 0.00 10 1006.2
20260509205449 96 290 5.0 12.0 0.00 0.00 0.00 10 1006.3
20260509204949 96 258 6.0 13.0 0.00 0.00 0.00 10 1006.4
20260509204449 96 269 5.0 13.0 0.00 0.00 0.00 10 1006.4
20260509203949 96 293 6.0 13.0 0.00 0.00 0.00 11 1006.5
20260509203448 96 227 4.0 14.0 0.00 0.00 0.00 11 1006.5
20260509202949 95 303 7.0 14.0 0.00 0.00 0.00 11 1006.6
20260509202449 94 237 6.0 14.0 0.00 0.00 0.00 11 1006.8
20260509201949 94 295 5.0 14.0 0.00 0.00 0.00 12 1007.0
20260509201448 94 289 6.0 13.0 0.00 0.00 0.00 12 1007.0
20260509200947 95 289 7.0 13.0 0.00 0.00 0.00 11 1007.0
20260509200448 95 290 5.0 15.0 0.00 0.00 0.00 11 1007.1
20260509195948 95 288 7.0 16.0 0.00 0.00 0.00 12 1007.1
20260509195448 96 299 6.0 16.0 0.00 0.00 0.00 12 1007.1
20260509195206 96 257 5.0 13.0 0.00 0.00 0.00 11 1007.1
20260509194719 96 282 5.0 13.0 0.00 0.00 0.00 11 1007.2
20260509193948 96 265 6.0 11.0 0.00 0.00 0.00 12 1007.3
20260509193447 95 285 1.0 13.0 0.00 0.00 0.00 12 1007.4
20260509192947 94 210 4.0 13.0 0.00 0.00 0.00 12 1007.4
20260509192933 94 303 3.0 13.0 0.00 0.00 0.00 12 1007.5
20260509191947 94 220 3.0 13.0 0.00 0.00 0.00 12 1007.5
20260509191447 95 272 4.0 11.0 0.00 0.00 0.00 13 1007.6
20260509190948 94 173 5.0 9.0 0.00 0.00 0.00 12 1007.6
20260509190717 94 28 1.0 7.0 0.00 0.00 0.00 12 1007.7
20260509185946 93 210 0.0 12.0 0.00 0.00 0.00 12 1007.8
20260509185446 94 296 8.0 12.0 0.00 0.00 0.00 12 1007.9
20260509184946 94 238 2.0 7.0 0.00 0.00 0.00 14 1007.8
20260509184446 94 281 1.0 7.0 0.00 0.00 0.00 14 1008.1
20260509183946 94 147 2.0 7.0 0.00 0.00 0.00 14 1008.2
20260509183445 94 257 0.0 5.0 0.00 0.00 0.00 15 1008.2
20260509182945 93 154 3.0 5.0 0.00 0.00 0.00 15 1008.3
20260509182445 92 154 0.0 5.0 0.00 0.00 0.00 15 1008.4
20260509182206 92 209 2.0 5.0 0.00 0.00 0.00 15 1008.5
20260509181445 92 7 0.0 4.0 0.00 0.00 0.00 15 1008.5
20260509181211 91 220 2.0 3.0 0.00 0.00 0.00 17 1008.6
20260509180445 89 32 0.0 5.0 0.00 0.00 0.00 17 1008.7
20260509175944 89 274 2.0 5.0 0.00 0.00 0.00 16 1008.8
20260509175445 89 247 3.0 4.0 0.00 0.00 0.00 17 1008.8
20260509174945 88 324 1.0 5.0 0.00 0.00 0.00 17 1008.9
20260509174445 89 295 1.0 5.0 0.00 0.00 0.00 18 1008.9
20260509173944 89 30 1.0 4.0 0.00 0.00 0.00 17 1008.9
20260509173445 89 207 0.0 4.0 0.00 0.00 0.00 17 1008.9
20260509172945 88 214 1.0 5.0 0.00 0.00 0.00 18 1008.9
20260509172444 89 283 2.0 5.0 0.00 0.00 0.00 18 1009.0
20260509171944 89 275 2.0 5.0 0.00 0.00 0.00 18 1009.1
20260509171443 88 179 1.0 4.0 0.00 0.00 0.00 17 1009.0
20260509170944 88 180 2.0 5.0 0.00 0.00 0.00 17 1009.1
20260509170443 87 217 2.0 5.0 0.00 0.00 0.00 18 1009.0
20260509165943 87 162 1.0 3.0 0.00 0.00 0.00 18 1009.1
20260509165444 88 82 0.0 3.0 0.00 0.00 0.00 18 1009.1
20260509164944 87 223 0.0 3.0 0.00 0.00 0.00 18 1009.1
20260509164443 87 152 1.0 3.0 0.00 0.00 0.00 19 1009.2
20260509164202 86 107 2.0 3.0 0.00 0.00 0.00 18 1009.1
20260509163443 85 102 0.0 3.0 0.00 0.00 0.00 19 1009.1
20260509162942 85 179 1.0 3.0 0.00 0.00 0.00 19 1009.2
20260509162443 86 121 2.0 3.0 0.00 0.00 0.00 18 1009.2
20260509161943 85 192 1.0 3.0 0.00 0.00 0.00 18 1009.2
20260509161443 85 147 1.0 4.0 0.00 0.00 0.00 19 1009.4
20260509160942 84 169 2.0 4.0 0.00 0.00 0.00 19 1009.2
20260509160442 85 83 2.0 4.0 0.00 0.00 0.00 19 1009.2
20260509160200 85 193 1.0 4.0 0.00 0.00 0.00 20 1009.2
20260509155703 84 240 0.0 2.0 0.00 0.00 0.00 20 1009.2
20260509154942 84 228 0.0 2.0 0.00 0.00 0.00 21 1009.1
20260509154441 84 231 0.0 1.0 0.00 0.00 0.00 20 1009.1
20260509153941 84 234 0.0 0.0 0.00 0.00 0.00 20 1009.1
20260509153442 84 158 0.0 1.0 0.00 0.00 0.00 22 1009.2
20260509152942 83 158 0.0 1.0 0.00 0.00 0.00 22 1009.1
20260509152441 82 240 0.0 0.0 0.00 0.00 0.00 23 1009.2
20260509151942 82 154 0.0 1.0 0.00 0.00 0.00 24 1009.2
20260509151442 82 168 0.0 1.0 0.00 0.00 0.00 28 1009.1
20260509150941 80 224 0.0 0.0 0.00 0.00 0.00 27 1009.2
20260509150440 80 237 0.0 0.0 0.00 0.00 0.00 28 1009.1
20260509150159 80 235 0.0 0.0 0.00 0.00 0.00 28 1009.1
20260509145441 79 235 0.0 0.0 0.00 0.00 0.00 29 1009.2
20260509144941 79 155 0.0 0.0 0.00 0.00 0.00 30 1009.1
20260509144440 80 155 0.0 0.0 0.00 0.00 0.00 28 1009.2
20260509143941 80 169 0.0 0.0 0.00 0.00 0.00 28 1009.1
20260509143440 79 37 0.0 0.0 0.00 0.00 0.00 30 1009.1
20260509142939 78 35 0.0 0.0 0.00 0.00 0.00 33 1009.1
20260509142439 76 35 0.0 0.0 0.00 0.00 0.00 35 1009.1
20260509141940 75 35 0.0 0.0 0.00 0.00 0.00 34 1009.0
20260509141440 73 35 0.0 0.0 0.00 0.00 0.00 34 1008.9
20260509140939 72 35 0.0 0.0 0.00 0.00 0.00 40 1009.0
20260509140440 71 35 0.0 0.0 0.00 0.00 0.00 39 1008.9
20260509135939 70 35 0.0 0.0 0.00 0.00 0.00 42 1008.9
20260509135701 70 35 0.0 0.0 0.00 0.00 0.00 43 1008.8
20260509134939 69 35 0.0 0.0 0.00 0.00 0.00 44 1008.8
20260509134438 69 35 0.0 0.0 0.00 0.00 0.00 46 1008.7
20260509133938 68 35 0.0 0.0 0.00 0.00 0.00 43 1008.7
20260509133439 68 35 0.0 0.0 0.00 0.00 0.00 45 1008.7
20260509132938 67 35 0.0 0.0 0.00 0.00 0.00 46 1008.6
20260509132443 67 35 0.0 0.0 0.00 0.00 0.00 45 1008.5
20260509131938 67 35 0.0 0.0 0.00 0.00 0.00 43 1008.5
20260509131701 66 35 0.0 0.0 0.00 0.00 0.00 38 1008.5
20260509131202 66 35 0.0 0.0 0.00 0.00 0.00 42 1008.4
20260509130438 66 45 0.0 0.0 0.00 0.00 0.00 40 1008.4
20260509125937 68 45 0.0 3.0 0.00 0.00 0.00 37 1008.3
20260509125438 69 45 0.0 3.0 0.00 0.00 0.00 33 1008.3
20260509124938 68 32 0.0 3.0 0.00 0.00 0.00 33 1008.3
20260509124438 67 39 2.0 3.0 0.00 0.00 0.00 34 1008.2
20260509123937 67 34 0.0 1.0 0.00 0.00 0.00 35 1008.1
20260509123438 67 35 0.0 2.0 0.00 0.00 0.00 37 1008.1
20260509122937 68 3 1.0 3.0 0.00 0.00 0.00 33 1008.2
20260509122438 68 38 0.0 3.0 0.00 0.00 0.00 34 1007.9
20260509121937 68 31 0.0 3.0 0.00 0.00 0.00 35 1007.9
20260509121437 68 27 1.0 3.0 0.00 0.00 0.00 32 1007.9
20260509121200 68 31 0.0 3.0 0.00 0.00 0.00 33 1007.8
20260509120701 68 32 1.0 3.0 0.00 0.00 0.00 32 1007.9
20260509115936 67 31 0.0 2.0 0.00 0.00 0.00 33 1007.8
20260509115436 67 38 0.0 2.0 0.00 0.00 0.00 35 1007.7
20260509114936 68 0 0.0 2.0 0.00 0.00 0.00 34 1007.8
20260509114437 67 34 0.0 2.0 0.00 0.00 0.00 33 1007.8
20260509113936 67 32 0.0 3.0 0.00 0.00 0.00 33 1007.8
20260509113436 68 351 0.0 4.0 0.00 0.00 0.00 33 1007.8
20260509113157 67 32 2.0 4.0 0.00 0.00 0.00 33 1007.7
20260509112435 68 17 0.0 4.0 0.00 0.00 0.00 34 1007.8
20260509111935 68 14 2.0 4.0 0.00 0.00 0.00 32 1007.8
20260509111700 68 47 1.0 4.0 0.00 0.00 0.00 32 1007.7
20260509110936 68 30 0.0 4.0 0.00 0.00 0.00 33 1007.8
20260509110436 67 49 4.0 4.0 0.00 0.00 0.00 32 1007.7
20260509105934 66 35 1.0 3.0 0.00 0.00 0.00 34 1007.7
20260509105435 66 28 0.0 3.0 0.00 0.00 0.00 36 1007.7
20260509104935 65 28 0.0 2.0 0.00 0.00 0.00 37 1007.7
20260509104435 65 11 0.0 2.0 0.00 0.00 0.00 37 1007.7
20260509103935 65 354 0.0 1.0 0.00 0.00 0.00 37 1007.6
20260509103435 66 351 0.0 1.0 0.00 0.00 0.00 39 1007.7
20260509102934 67 353 0.0 3.0 0.00 0.00 0.00 37 1007.7
20260509102434 66 357 0.0 4.0 0.00 0.00 0.00 32 1007.6
20260509101934 67 343 1.0 4.0 0.00 0.00 0.00 39 1007.8
20260509101434 67 8 0.0 2.0 0.00 0.00 0.00 33 1007.7
20260509100934 68 39 0.0 0.0 0.00 0.00 0.00 33 1007.8
20260509100657 69 44 0.0 3.0 0.00 0.00 0.00 32 1007.8
20260509095934 68 42 0.0 3.0 0.00 0.00 0.00 31 1007.8
20260509095434 68 110 0.0 3.0 0.00 0.00 0.00 32 1007.7
20260509094934 67 3 1.0 3.0 0.00 0.00 0.00 33 1007.8
20260509094434 66 83 0.0 2.0 0.00 0.00 0.00 32 1007.8
20260509094203 66 357 1.0 2.0 0.00 0.00 0.00 36 1007.8
20260509093433 66 31 0.0 1.0 0.00 0.00 0.00 37 1007.7
20260509092933 67 290 0.0 0.0 0.00 0.00 0.00 38 1007.8
20260509092433 67 41 0.0 0.0 0.00 0.00 0.00 33 1007.7
20260509091933 67 10 0.0 0.0 0.00 0.00 0.00 31 1007.8
20260509091433 67 0 0.0 2.0 0.00 0.00 0.00 36 1007.8
20260509090933 66 0 1.0 2.0 0.00 0.00 0.00 35 1007.8
20260509090433 67 299 0.0 0.0 0.00 0.00 0.00 37 1007.8
20260509085932 68 130 0.0 0.0 0.00 0.00 0.00 33 1007.8
20260509085432 67 123 0.0 0.0 0.00 0.00 0.00 30 1007.7
20260509085153 67 135 0.0 0.0 0.00 0.00 0.00 34 1007.8
20260509084432 68 135 0.0 0.0 0.00 0.00 0.00 38 1007.8
20260509083932 69 137 0.0 0.0 0.00 0.00 0.00 30 1007.7
20260509083432 69 137 0.0 0.0 0.00 0.00 0.00 30 1007.8
20260509083159 69 137 0.0 0.0 0.00 0.00 0.00 28 1007.7
20260509082432 69 345 0.0 0.0 0.00 0.00 0.00 30 1007.8
20260509081932 69 66 0.0 1.0 0.00 0.00 0.00 30 1007.8
20260509081432 69 133 0.0 1.0 0.00 0.00 0.00 30 1007.8
20260509080930 69 117 0.0 0.0 0.00 0.00 0.00 32 1007.7
20260509080431 69 27 0.0 0.0 0.00 0.00 0.00 31 1007.7
20260509075931 69 25 0.0 0.0 0.00 0.00 0.00 31 1007.7
20260509075431 70 27 0.0 0.0 0.00 0.00 0.00 32 1007.7
20260509075150 69 27 0.0 0.0 0.00 0.00 0.00 33 1007.6
20260509074431 70 28 0.0 0.0 0.00 0.00 0.00 33 1007.8
20260509073932 70 28 0.0 0.0 0.00 0.00 0.00 31 1007.8
20260509073431 70 30 0.0 0.0 0.00 0.00 0.00 31 1007.8
20260509073151 69 82 0.0 2.0 0.00 0.00 0.00 30 1007.8
20260509072429 69 334 0.0 4.0 0.00 0.00 0.00 34 1007.9
20260509071929 69 18 2.0 4.0 0.00 0.00 0.00 37 1007.7
20260509071429 68 21 0.0 0.0 0.00 0.00 0.00 38 1007.7
20260509071151 68 264 0.0 0.0 0.00 0.00 0.00 43 1008.1
20260509070430 69 292 0.0 0.0 0.00 0.00 0.00 40 1007.7
20260509065930 69 292 0.0 1.0 0.00 0.00 0.00 40 1007.6
20260509065914 69 354 0.0 1.0 0.00 0.00 0.00 36 1007.6
20260509064929 69 10 0.0 0.0 0.00 0.00 0.00 37 1007.6
20260509064429 69 276 0.0 0.0 0.00 0.00 0.00 42 1007.6
20260509063929 69 276 0.0 2.0 0.00 0.00 0.00 38 1007.6